CW2303 Weather Reports


time (UTC)temp
C
wind
direction
speed
KPH
gust
KPH
rain 1hr
cm
rain 24hr
cm
rain mn
cm
humidity
%
barometer
mb
20260903050127 25 0 0.0 1.6 0.00 0.00 0.00 71 1016.4
20260903045543 25 150 0.0 3.2 0.00 0.00 0.00 70 1016.4
20260903045042 25 0 0.0 3.2 0.00 0.00 0.00 70 1016.4
20260903044606 25 173 0.0 3.2 0.00 0.00 0.00 70 1016.3
20260903044042 25 157 0.0 3.2 0.00 0.00 0.00 69 1016.4
20260903043543 26 0 0.0 3.2 0.00 0.00 0.00 69 1016.4
20260903043106 26 180 0.0 4.8 0.00 0.00 0.00 68 1016.3
20260903042543 26 194 0.0 4.8 0.00 0.00 0.00 68 1016.3
20260903042043 26 0 0.0 1.6 0.00 0.00 0.00 67 1016.3
20260903041603 26 141 0.0 3.2 0.00 0.00 0.00 67 1016.4
20260903041042 26 138 0.0 3.2 0.00 0.00 0.00 67 1016.4
20260903040543 26 0 0.0 3.2 0.00 0.00 0.00 67 1016.4
20260903040105 26 150 0.0 1.6 0.00 0.00 0.00 66 1016.3
20260903035543 26 144 0.0 3.2 0.00 0.00 0.00 66 1016.4
20260903035044 26 152 0.0 3.2 0.00 0.00 0.00 66 1016.6
20260903034607 26 153 0.0 3.2 0.00 0.00 0.00 65 1016.5
20260903034045 26 0 0.0 3.2 0.00 0.00 0.00 65 1016.4
20260903033546 27 0 0.0 4.8 0.00 0.00 0.00 64 1016.3
20260903033104 27 184 0.0 4.8 0.00 0.00 0.00 64 1016.2
20260903032542 27 134 0.0 6.4 0.00 0.00 0.00 63 1016.2
20260903032044 27 143 1.6 6.4 0.00 0.00 0.00 63 1016.2
20260903031559 27 215 1.6 6.4 0.00 0.00 0.00 63 1016.2
20260903031045 27 142 0.0 3.2 0.00 0.00 0.00 63 1016.2
20260903030543 27 136 0.0 1.6 0.00 0.00 0.00 63 1016.2
20260903030059 27 167 0.0 4.8 0.00 0.00 0.00 63 1016.2
20260903025543 27 0 0.0 4.8 0.00 0.00 0.00 62 1016.2
20260903025043 27 0 0.0 4.8 0.00 0.00 0.00 62 1016.1
20260903024603 27 138 0.0 3.2 0.00 0.00 0.00 61 1016.1
20260903024042 27 138 0.0 3.2 0.00 0.00 0.00 61 1016.1
20260903023542 27 148 1.6 3.2 0.00 0.00 0.00 60 1015.9
20260903023107 27 142 1.6 3.2 0.00 0.00 0.00 60 1015.9
20260903022542 28 151 1.6 4.8 0.00 0.00 0.00 60 1015.8
20260903022043 28 127 1.6 4.8 0.00 0.00 0.00 59 1015.8
20260903021602 28 0 0.0 4.8 0.00 0.00 0.00 59 1015.7
20260903021043 28 148 0.0 4.8 0.00 0.00 0.00 58 1015.6
20260903020546 28 140 1.6 4.8 0.00 0.00 0.00 57 1015.7
20260903020106 28 138 1.6 4.8 0.00 0.00 0.00 57 1015.6
20260903015543 28 140 1.6 4.8 0.00 0.00 0.00 57 1015.5
20260903015046 28 136 1.6 4.8 0.00 0.00 0.00 56 1015.4
20260903014613 28 128 1.6 4.8 0.00 0.00 0.00 56 1015.4
20260903014042 28 138 0.0 3.2 0.00 0.00 0.00 56 1015.3
20260903013544 28 129 1.6 3.2 0.00 0.00 0.00 55 1015.2
20260903013110 28 128 0.0 1.6 0.00 0.00 0.00 55 1015.1
20260903012543 29 0 0.0 1.6 0.00 0.00 0.00 55 1015.2
20260903012043 29 132 0.0 1.6 0.00 0.00 0.00 55 1015.1
20260903011611 29 129 0.0 1.6 0.00 0.00 0.00 54 1015.0
20260903011043 29 0 0.0 1.6 0.00 0.00 0.00 54 1014.9
20260903010544 29 0 0.0 1.6 0.00 0.00 0.00 54 1015.0
20260903010059 29 0 0.0 0.0 0.00 0.00 0.00 53 1015.0
20260903005543 30 0 0.0 0.0 0.00 0.00 0.00 51 1015.0
20260903005043 30 0 0.0 0.0 0.00 0.00 0.00 51 1014.9
20260903004606 30 132 0.0 0.0 0.00 0.00 0.00 50 1014.9
20260903004043 31 0 0.0 1.6 0.00 0.00 0.00 49 1015.0
20260903003542 31 0 0.0 1.6 0.00 0.00 0.00 47 1015.0
20260903003101 32 136 0.0 1.6 0.00 0.00 0.00 46 1015.0
20260903002544 32 0 0.0 1.6 0.00 0.00 0.00 45 1014.9
20260903002046 33 140 0.0 0.0 0.00 0.00 0.00 44 1015.0
20260903001608 33 0 0.0 1.6 0.00 0.00 0.00 44 1015.0
20260903001042 33 0 0.0 1.6 0.00 0.00 0.00 43 1015.0
20260903000542 33 0 0.0 3.2 0.00 0.00 0.00 42 1015.0
20260903000107 33 0 0.0 3.2 0.00 0.00 0.00 42 1015.0
20260902235543 33 0 0.0 3.2 0.00 0.00 0.00 42 1015.0
20260902235045 33 0 0.0 11.3 0.00 0.00 0.00 42 1015.0
20260902234606 33 175 1.6 11.3 0.00 0.00 0.00 42 1015.0
20260902234045 33 136 1.6 6.4 0.00 0.00 0.00 41 1015.0
20260902233543 33 152 1.6 6.4 0.00 0.00 0.00 41 1015.0
20260902233106 33 195 1.6 4.8 0.00 0.00 0.00 41 1015.1
20260902232543 34 156 1.6 6.4 0.00 0.00 0.00 41 1015.1
20260902232043 34 172 1.6 8.0 0.00 0.00 0.00 41 1015.2
20260902231610 33 191 1.6 8.0 0.00 0.00 0.00 42 1015.1
20260902231044 34 126 0.0 9.7 0.00 0.00 0.00 42 1015.2
20260902230543 34 190 0.0 9.7 0.00 0.00 0.00 41 1015.3
20260902230107 34 144 3.2 8.0 0.00 0.00 0.00 41 1015.3
20260902225542 34 135 1.6 8.0 0.00 0.00 0.00 41 1015.2
20260902225042 34 163 1.6 8.0 0.00 0.00 0.00 42 1015.2
20260902224602 34 210 1.6 6.4 0.00 0.00 0.00 41 1015.2
20260902224043 35 181 1.6 9.7 0.00 0.00 0.00 41 1015.3
20260902223543 35 138 1.6 9.7 0.00 0.00 0.00 43 1015.3
20260902223108 35 165 3.2 8.0 0.00 0.00 0.00 41 1015.3
20260902222545 35 211 1.6 9.7 0.00 0.00 0.00 40 1015.3
20260902222043 35 191 4.8 9.7 0.00 0.00 0.00 41 1015.4
20260902221600 35 198 1.6 9.7 0.00 0.00 0.00 40 1015.3
20260902221043 35 159 1.6 9.7 0.00 0.00 0.00 41 1015.3
20260902220545 36 171 4.8 9.7 0.00 0.00 0.00 39 1015.4
20260902220109 36 167 3.2 11.3 0.00 0.00 0.00 39 1015.4
20260902215544 36 151 1.6 11.3 0.00 0.00 0.00 38 1015.3
20260902215042 36 173 4.8 11.3 0.00 0.00 0.00 40 1015.4
20260902214604 35 0 3.2 12.9 0.00 0.00 0.00 41 1015.5
20260902214042 36 153 3.2 12.9 0.00 0.00 0.00 39 1015.5
20260902213542 36 133 4.8 12.9 0.00 0.00 0.00 39 1015.5
20260902213105 36 221 1.6 12.9 0.00 0.00 0.00 39 1015.5
20260902212543 36 185 4.8 12.9 0.00 0.00 0.00 38 1015.6
20260902212043 36 152 4.8 12.9 0.00 0.00 0.00 38 1015.6
20260902211608 36 167 1.6 12.9 0.00 0.00 0.00 39 1015.7
20260902211042 36 143 6.4 12.9 0.00 0.00 0.00 38 1015.7
20260902210543 36 106 3.2 9.7 0.00 0.00 0.00 41 1015.7
20260902210124 36 252 3.2 9.7 0.00 0.00 0.00 38 1015.8
20260902205542 36 196 3.2 9.7 0.00 0.00 0.00 39 1015.9
20260902205043 36 192 4.8 9.7 0.00 0.00 0.00 39 1015.9
20260902204607 36 245 3.2 11.3 0.00 0.00 0.00 40 1016.0
20260902204042 36 247 3.2 11.3 0.00 0.00 0.00 39 1016.0
20260902203542 36 198 3.2 11.3 0.00 0.00 0.00 42 1016.2
20260902203103 35 217 3.2 11.3 0.00 0.00 0.00 39 1016.1
20260902202545 35 221 3.2 9.7 0.00 0.00 0.00 41 1016.1
20260902202045 35 208 4.8 12.9 0.00 0.00 0.00 41 1016.3
20260902201606 35 221 1.6 14.5 0.00 0.00 0.00 41 1016.4
20260902201043 36 138 6.4 14.5 0.00 0.00 0.00 41 1016.5
20260902200543 35 190 4.8 14.5 0.00 0.00 0.00 42 1016.5
20260902200119 35 223 1.6 9.7 0.00 0.00 0.00 39 1016.6
20260902195543 36 240 3.2 14.5 0.00 0.00 0.00 41 1016.7
20260902195044 35 151 6.4 14.5 0.00 0.00 0.00 43 1016.8
20260902194609 35 190 3.2 14.5 0.00 0.00 0.00 42 1016.9
20260902194043 35 246 3.2 11.3 0.00 0.00 0.00 43 1017.1
20260902193545 35 311 1.6 11.3 0.00 0.00 0.00 40 1017.1
20260902193107 36 168 4.8 11.3 0.00 0.00 0.00 42 1017.2
20260902192542 35 0 3.2 11.3 0.00 0.00 0.00 44 1017.2
20260902192043 35 275 3.2 12.9 0.00 0.00 0.00 44 1017.3
20260902191602 35 132 3.2 12.9 0.00 0.00 0.00 42 1017.4
20260902191042 35 169 4.8 12.9 0.00 0.00 0.00 44 1017.5
20260902190543 35 146 4.8 8.0 0.00 0.00 0.00 45 1017.6
20260902185542 35 211 3.2 11.3 0.00 0.00 0.00 47 1017.7
20260902185044 35 257 3.2 11.3 0.00 0.00 0.00 46 1017.8
20260902184607 35 137 1.6 9.7 0.00 0.00 0.00 45 1017.8
20260902184042 35 175 4.8 12.9 0.00 0.00 0.00 50 1017.8
20260902183543 35 99 3.2 14.5 0.00 0.00 0.00 49 1017.9
20260902183105 35 128 4.8 14.5 0.00 0.00 0.00 49 1018.0
20260902182542 34 138 6.4 16.1 0.00 0.00 0.00 48 1018.0
20260902182044 35 252 4.8 16.1 0.00 0.00 0.00 48 1018.1
20260902181603 34 248 3.2 9.7 0.00 0.00 0.00 50 1018.1
20260902181043 34 212 1.6 9.7 0.00 0.00 0.00 48 1018.2
20260902180542 34 236 4.8 11.3 0.00 0.00 0.00 49 1018.3
20260902180131 35 221 3.2 11.3 0.00 0.00 0.00 46 1018.3
20260902175543 34 243 4.8 9.7 0.00 0.00 0.00 50 1018.4
20260902175043 34 219 3.2 11.3 0.00 0.00 0.00 50 1018.4
20260902174607 34 153 3.2 14.5 0.00 0.00 0.00 49 1018.5
20260902174042 34 240 4.8 14.5 0.00 0.00 0.00 51 1018.7
20260902173542 34 221 4.8 11.3 0.00 0.00 0.00 51 1018.7
20260902173104 33 166 6.4 11.3 0.00 0.00 0.00 52 1018.7
20260902172545 33 144 3.2 11.3 0.00 0.00 0.00 52 1018.7
20260902172043 33 232 3.2 16.1 0.00 0.00 0.00 52 1018.8
20260902171604 33 215 4.8 16.1 0.00 0.00 0.00 53 1018.8
20260902171043 33 268 3.2 11.3 0.00 0.00 0.00 52 1018.8
20260902170542 33 229 4.8 14.5 0.00 0.00 0.00 53 1018.9
20260902170106 33 278 4.8 14.5 0.00 0.00 0.00 53 1018.9
20260902165544 33 193 3.2 14.5 0.00 0.00 0.00 54 1019.0
20260902165043 33 215 4.8 14.5 0.00 0.00 0.00 54 1019.0
20260902164609 33 149 3.2 11.3 0.00 0.00 0.00 55 1018.9
20260902164043 33 172 3.2 9.7 0.00 0.00 0.00 55 1019.1
20260902163544 33 126 1.6 9.7 0.00 0.00 0.00 55 1019.1
20260902163106 33 127 1.6 11.3 0.00 0.00 0.00 56 1019.2
20260902162548 32 97 3.2 12.9 0.00 0.00 0.00 56 1019.3
20260902162044 32 232 6.4 12.9 0.00 0.00 0.00 56 1019.4
20260902161602 33 114 3.2 9.7 0.00 0.00 0.00 55 1019.4
20260902161043 32 193 4.8 8.0 0.00 0.00 0.00 57 1019.4
20260902160542 32 146 1.6 14.5 0.00 0.00 0.00 56 1019.5
20260902160112 32 264 1.6 16.1 0.00 0.00 0.00 57 1019.4
20260902155543 32 211 4.8 16.1 0.00 0.00 0.00 57 1019.4
20260902155043 32 261 6.4 12.9 0.00 0.00 0.00 57 1019.4
20260902154605 32 187 3.2 14.5 0.00 0.00 0.00 57 1019.4
20260902154043 32 240 4.8 16.1 0.00 0.00 0.00 57 1019.4
20260902153545 32 196 1.6 16.1 0.00 0.00 0.00 58 1019.3
20260902153103 32 257 3.2 9.7 0.00 0.00 0.00 58 1019.3
20260902152542 31 148 1.6 9.7 0.00 0.00 0.00 61 1019.2
20260902152044 31 116 3.2 17.7 0.00 0.00 0.00 61 1019.2
20260902151602 31 234 3.2 17.7 0.00 0.00 0.00 60 1019.2
20260902151043 31 236 8.0 17.7 0.00 0.00 0.00 60 1019.2
20260902150542 31 176 4.8 11.3 0.00 0.00 0.00 59 1019.1
20260902150106 31 232 1.6 12.9 0.00 0.00 0.00 61 1019.2
20260902145543 31 236 1.6 12.9 0.00 0.00 0.00 60 1019.3
20260902145046 31 168 1.6 8.0 0.00 0.00 0.00 62 1019.2
20260902144603 31 223 1.6 8.0 0.00 0.00 0.00 62 1019.2
20260902144044 30 167 1.6 6.4 0.00 0.00 0.00 63 1019.2
20260902143543 30 219 1.6 9.7 0.00 0.00 0.00 63 1019.2
20260902143108 30 136 1.6 11.3 0.00 0.00 0.00 65 1019.2
20260902142544 30 130 3.2 11.3 0.00 0.00 0.00 66 1019.1
20260902142042 29 154 3.2 11.3 0.00 0.00 0.00 65 1019.1
20260902141607 29 176 1.6 8.0 0.00 0.00 0.00 66 1019.1
20260902141042 28 175 1.6 8.0 0.00 0.00 0.00 67 1019.2
20260902140542 28 139 1.6 8.0 0.00 0.00 0.00 69 1019.3
20260902140103 27 198 1.6 8.0 0.00 0.00 0.00 71 1019.3
20260902135543 27 149 1.6 8.0 0.00 0.00 0.00 71 1019.3
20260902135043 27 196 1.6 8.0 0.00 0.00 0.00 72 1019.3
20260902134607 27 135 0.0 6.4 0.00 0.00 0.00 72 1019.4
20260902134042 27 218 0.0 6.4 0.00 0.00 0.00 72 1019.4
20260902133543 26 163 0.0 6.4 0.00 0.00 0.00 72 1019.4
20260902133057 26 162 0.0 8.0 0.00 0.00 0.00 72 1019.4
20260902132542 26 186 1.6 8.0 0.00 0.00 0.00 73 1019.4
20260902132042 26 239 1.6 8.0 0.00 0.00 0.00 74 1019.3
20260902131607 26 188 0.0 8.0 0.00 0.00 0.00 74 1019.3
20260902131043 26 154 1.6 6.4 0.00 0.00 0.00 74 1019.3
20260902130545 26 146 0.0 6.4 0.00 0.00 0.00 74 1019.3
20260902130103 25 142 1.6 6.4 0.00 0.00 0.00 74 1019.3
20260902125542 25 195 0.0 6.4 0.00 0.00 0.00 75 1019.4
20260902125044 25 134 0.0 4.8 0.00 0.00 0.00 75 1019.3
20260902124608 25 193 0.0 4.8 0.00 0.00 0.00 75 1019.3
20260902124043 25 163 0.0 4.8 0.00 0.00 0.00 76 1019.3
20260902123543 25 143 0.0 1.6 0.00 0.00 0.00 76 1019.4
20260902123103 25 0 0.0 1.6 0.00 0.00 0.00 76 1019.3
20260902122546 24 143 0.0 1.6 0.00 0.00 0.00 76 1019.3
20260902122042 24 0 0.0 4.8 0.00 0.00 0.00 76 1019.2
20260902121611 24 134 0.0 4.8 0.00 0.00 0.00 76 1019.1
20260902121042 24 113 1.6 4.8 0.00 0.00 0.00 76 1019.0
20260902120542 24 139 0.0 4.8 0.00 0.00 0.00 76 1018.9
20260902120058 24 126 1.6 4.8 0.00 0.00 0.00 77 1018.9
20260902115543 23 0 0.0 3.2 0.00 0.00 0.00 77 1018.8
20260902115046 23 130 1.6 3.2 0.00 0.00 0.00 77 1018.8
20260902114601 23 166 0.0 4.8 0.00 0.00 0.00 77 1018.7
20260902114045 23 131 0.0 4.8 0.00 0.00 0.00 77 1018.7
20260902113545 23 147 0.0 4.8 0.00 0.00 0.00 77 1018.5
20260902113110 23 146 0.0 3.2 0.00 0.00 0.00 77 1018.6
20260902112544 23 0 0.0 3.2 0.00 0.00 0.00 77 1018.6
20260902112043 23 142 0.0 3.2 0.00 0.00 0.00 76 1018.5
20260902111605 23 0 0.0 3.2 0.00 0.00 0.00 76 1018.5
20260902111042 23 138 0.0 3.2 0.00 0.00 0.00 76 1018.5
20260902110544 23 0 0.0 1.6 0.00 0.00 0.00 76 1018.5
20260902110107 23 146 0.0 1.6 0.00 0.00 0.00 76 1018.5
20260902105543 23 137 0.0 1.6 0.00 0.00 0.00 75 1018.5
20260902105042 24 0 0.0 4.8 0.00 0.00 0.00 75 1018.4
20260902104602 24 136 0.0 4.8 0.00 0.00 0.00 75 1018.4
20260902104043 24 0 0.0 4.8 0.00 0.00 0.00 75 1018.4
20260902103545 24 0 0.0 6.4 0.00 0.00 0.00 75 1018.4
20260902103059 24 146 1.6 6.4 0.00 0.00 0.00 75 1018.4
20260902102543 24 142 0.0 3.2 0.00 0.00 0.00 75 1018.3
20260902102044 24 139 0.0 3.2 0.00 0.00 0.00 74 1018.4
20260902101605 24 132 0.0 4.8 0.00 0.00 0.00 74 1018.2
20260902101042 24 145 0.0 4.8 0.00 0.00 0.00 74 1018.3
20260902100542 24 125 0.0 3.2 0.00 0.00 0.00 75 1018.3
20260902100110 24 0 0.0 3.2 0.00 0.00 0.00 74 1018.3
20260902095544 24 131 0.0 3.2 0.00 0.00 0.00 74 1018.3
20260902095043 24 0 0.0 3.2 0.00 0.00 0.00 74 1018.3
20260902094600 24 0 0.0 4.8 0.00 0.00 0.00 74 1018.2
20260902094043 24 146 0.0 4.8 0.00 0.00 0.00 74 1018.2
20260902093542 24 0 0.0 3.2 0.00 0.00 0.00 75 1018.2
20260902093058 24 0 0.0 1.6 0.00 0.00 0.00 75 1018.1
20260902092542 24 147 0.0 1.6 0.00 0.00 0.00 74 1018.1
20260902092042 24 148 0.0 3.2 0.00 0.00 0.00 74 1018.0
20260902091557 24 151 0.0 3.2 0.00 0.00 0.00 74 1017.9
20260902091043 24 147 0.0 3.2 0.00 0.00 0.00 74 1018.0
20260902090543 24 0 0.0 3.2 0.00 0.00 0.00 74 1018.0
20260902090059 24 159 0.0 3.2 0.00 0.00 0.00 74 1018.1
20260902085546 24 0 0.0 6.4 0.00 0.00 0.00 74 1018.1
20260902085042 24 0 0.0 6.4 0.00 0.00 0.00 74 1018.1
20260902084603 24 142 0.0 3.2 0.00 0.00 0.00 74 1018.1
20260902084043 24 200 0.0 6.4 0.00 0.00 0.00 73 1018.1
20260902083545 25 182 0.0 6.4 0.00 0.00 0.00 73 1018.1
20260902083105 24 144 0.0 3.2 0.00 0.00 0.00 74 1018.0
20260902082542 24 144 0.0 6.4 0.00 0.00 0.00 74 1018.1
20260902082043 25 193 0.0 6.4 0.00 0.00 0.00 74 1018.1
20260902081607 25 179 0.0 6.4 0.00 0.00 0.00 74 1018.1
20260902081045 24 144 1.6 4.8 0.00 0.00 0.00 74 1018.2
20260902080617 24 151 0.0 6.4 0.00 0.00 0.00 74 1018.2
20260902080543 24 151 0.0 6.4 0.00 0.00 0.00 74 1018.2
20260902080059 24 190 0.0 6.4 0.00 0.00 0.00 74 1018.2
20260902075542 24 153 0.0 4.8 0.00 0.00 0.00 75 1018.1
20260902075042 24 0 0.0 3.2 0.00 0.00 0.00 75 1018.1
20260902074600 24 157 0.0 3.2 0.00 0.00 0.00 75 1018.0
20260902074042 24 157 0.0 1.6 0.00 0.00 0.00 74 1018.0
20260902073543 24 159 0.0 3.2 0.00 0.00 0.00 74 1018.0
20260902073106 24 0 0.0 3.2 0.00 0.00 0.00 74 1018.1
20260902072542 24 158 0.0 4.8 0.00 0.00 0.00 74 1018.1
20260902072047 24 162 0.0 4.8 0.00 0.00 0.00 74 1018.0
20260902071600 24 159 0.0 4.8 0.00 0.00 0.00 74 1018.0
20260902071045 24 155 0.0 4.8 0.00 0.00 0.00 74 1018.0
20260902070543 24 167 0.0 4.8 0.00 0.00 0.00 74 1018.1
20260902070112 24 173 0.0 3.2 0.00 0.00 0.00 74 1018.0
20260902065544 24 139 0.0 4.8 0.00 0.00 0.00 74 1018.0
20260902065042 24 0 0.0 4.8 0.00 0.00 0.00 74 1018.1
20260902064611 24 0 0.0 1.6 0.00 0.00 0.00 73 1018.1
20260902064042 24 159 0.0 1.6 0.00 0.00 0.00 73 1018.1
20260902063545 24 160 0.0 1.6 0.00 0.00 0.00 73 1018.0
20260902063103 24 145 0.0 1.6 0.00 0.00 0.00 72 1018.1
20260902062547 24 153 0.0 1.6 0.00 0.00 0.00 72 1018.0
20260902062043 24 143 0.0 1.6 0.00 0.00 0.00 72 1018.0
20260902061045 24 0 0.0 1.6 0.00 0.00 0.00 71 1018.1
20260902060543 25 0 0.0 1.6 0.00 0.00 0.00 71 1018.0
20260902060114 25 0 0.0 1.6 0.00 0.00 0.00 71 1018.0
20260902055544 25 0 0.0 1.6 0.00 0.00 0.00 71 1018.0
20260902055043 25 0 0.0 8.0 0.00 0.00 0.00 70 1018.0
20260902054604 25 181 0.0 8.0 0.00 0.00 0.00 70 1018.0
20260902054042 25 136 0.0 3.2 0.00 0.00 0.00 70 1018.0
20260902053542 25 141 0.0 3.2 0.00 0.00 0.00 70 1017.9
20260902053124 25 145 0.0 3.2 0.00 0.00 0.00 70 1018.0
20260902052543 25 0 0.0 1.6 0.00 0.00 0.00 70 1017.9
20260902052043 25 0 0.0 3.2 0.00 0.00 0.00 70 1017.9
20260902051604 25 120 0.0 3.2 0.00 0.00 0.00 69 1017.8
20260902051044 25 161 0.0 8.0 0.00 0.00 0.00 69 1017.9
20260902050543 25 0 0.0 8.0 0.00 0.00 0.00 69 1018.0